Flag for Rwanda Weather past 2 weeks in Butare, Rwanda

Now
70 °F

Partly sunny.


Feels Like: 70 °F
Forecast: 56 / 74 °F
Wind: No wind

Location: Kigali Airport

Current Time: Apr 26, 2015 at 5:43:35 PM

Latest Report: Apr 26, 2015 at 5:30 PM


Visibility: N/A

Pressure: 30.07 "Hg

Humidity: 94%

Dew point: 68 °F

Location of ButareLocation

Historic Weather in Butare — Graph

°F

Butare temperature yesterday

Maximum temperature yesterday: 77 °F (at 2:30 PM)
Minimum temperature yesterday: 63 °F (at 3:00 AM)
Average temperature yesterday: 69 °F

Past Weeks' High & Low Weather Summary

 TemperatureHumidityPressure
High82 °F (Apr 11, 4:30 PM)100% (Apr 12, 3:00 AM)30.27 "Hg (Apr 12, 3:00 AM)
Low61 °F (Apr 13, 6:00 AM)51% (Apr 11, 4:00 PM)30.01 "Hg (Apr 14, 2:30 PM)
Average69 °F89%30.15 "Hg
* Reported Apr 11 4:00 PM — Apr 26 4:00 PM, Butare, Weather by CustomWeather, © 2015

Note: Actual official high and low records may vary slightly from our data, if they occured in-between our weather recording intervals... More about our weather records

Advertising

Butare weather history for previous 24 hours

 ConditionsComfort  
Time TempWeatherWind HumidityBarometerVisibility
4:00 PM
Sun, Apr 26
73 °FPartly sunny.5 mph78%30.09 "HgN/A
3:30 PM75 °FPartly sunny.3 mph74%30.09 "HgN/A
3:00 PM75 °FPartly sunny.3 mph69%30.09 "HgN/A
2:30 PM73 °FPartly sunny.3 mph74%30.12 "HgN/A
1:30 PM75 °FPartly sunny.3 mph74%30.12 "HgN/A
1:00 PM75 °FPartly sunny.3 mph74%30.12 "HgN/A
12:30 PM73 °FBroken clouds.5 mph78%30.15 "HgN/A
12:00 PM73 °FBroken clouds.7 mph78%30.18 "HgN/A
11:30 AM75 °FBroken clouds.7 mph74%30.18 "HgN/A
11:00 AM73 °FBroken clouds.8 mph83%30.18 "HgN/A
10:30 AM72 °FBroken clouds.7 mph83%30.21 "HgN/A
10:00 AM72 °FBroken clouds.6 mph83%30.21 "HgN/A
9:30 AM72 °FBroken clouds.No wind83%30.21 "HgN/A
9:00 AM70 °FBroken clouds.No wind94%30.21 "HgN/A
8:30 AM66 °FPartly sunny.3 mph100%30.18 "HgN/A
8:00 AM66 °FPartly sunny.No wind100%30.18 "HgN/A
7:30 AM64 °FScattered clouds.No wind100%30.18 "HgN/A
7:00 AM64 °FScattered clouds.3 mph100%30.15 "HgN/A
6:30 AM63 °FScattered clouds.3 mph100%30.15 "HgN/A
6:00 AM63 °FScattered clouds.3 mph100%30.15 "HgN/A
5:30 AM63 °FPassing clouds.3 mph100%30.15 "HgN/A
5:00 AM63 °FPassing clouds.No wind100%30.15 "HgN/A
4:00 AM64 °FPassing clouds.No wind100%30.12 "HgN/A
3:00 AM64 °FPassing clouds.3 mph100%30.12 "HgN/A
2:00 AM64 °FPassing clouds.No wind100%30.12 "HgN/A
1:30 AM64 °FPassing clouds.No wind100%30.15 "HgN/A
1:00 AM64 °FPassing clouds.No wind100%30.15 "HgN/A
12:30 AM64 °FPassing clouds.3 mph100%30.18 "HgN/A
12:00 AM66 °FPassing clouds.3 mph100%30.18 "HgN/A
11:00 PM
Sat, Apr 25
66 °FPassing clouds.No wind100%30.18 "HgN/A
10:30 PM66 °FPassing clouds.No wind100%30.18 "HgN/A
10:00 PM66 °FPassing clouds.No wind100%30.15 "HgN/A
9:30 PM66 °FPassing clouds.No wind100%30.15 "HgN/A
9:00 PM68 °FPassing clouds.No wind94%30.15 "HgN/A
8:30 PM68 °FPassing clouds.No wind94%30.12 "HgN/A
8:00 PM70 °FPassing clouds.No wind83%30.12 "HgN/A
7:30 PM70 °FPassing clouds.3 mph88%30.12 "HgN/A
7:00 PM70 °FPassing clouds.5 mph88%30.12 "HgN/A
6:30 PM72 °FPassing clouds.5 mph78%30.09 "HgN/A
6:00 PM75 °FPartly cloudy.No wind74%30.09 "HgN/A
5:30 PM75 °FScattered clouds.3 mph69%30.09 "HgN/A
5:00 PM75 °FScattered clouds.3 mph69%30.09 "HgN/A
Weather by CustomWeather, © 2015

See weather overviewHow to use our weather pages